Flag for Germany Weather past 2 weeks in Potsdam, Brandenburg, Germany

Now
39 °F

Overcast.


Feels Like: 35 °F
Forecast: 37 / 44 °F
Wind: 6 mph from South

Location: Potsdam

Current Time: Mar 2, 2015 at 1:25:47 AM

Latest Report: Mar 2, 2015 at 1:00 AM


Visibility: 22 mi

Pressure: 29.57 "Hg

Humidity: 91%

Dew point: 37 °F

Location of PotsdamLocation

Historic Weather in Potsdam — Graph

°F

Potsdam temperature yesterday

Maximum temperature yesterday: 46 °F (at 5:00 PM)
Minimum temperature yesterday: 33 °F (at 1:00 AM)
Average temperature yesterday: 39 °F

Past Weeks' High & Low Weather Summary

 TemperatureHumidityPressure
High51 °F (Feb 27, 2:00 PM)99% (Feb 24, 1:00 AM)30.74 "Hg (Feb 24, 1:00 AM)
Low26 °F (Feb 17, 8:00 AM)39% (Feb 27, 3:00 PM)29.38 "Hg (Feb 21, 12:00 PM)
Average37 °F81%30.00 "Hg
* Reported Midnight between Feb 14 and Feb 15 — Midnight between Mar 1 and Mar 2, Potsdam, Weather by CustomWeather, © 2015

Note: Actual official high and low records may vary slightly from our data, if they occured in-between our weather recording intervals... More about our weather records

Advertising

Potsdam weather history for previous 24 hours

 ConditionsComfort  
Time TempWeatherWind HumidityBarometerVisibility
12:00 AM
Mon, Mar 2
39 °FPassing clouds.6 mph92%29.59 "Hg25 mi
11:00 PM
Sun, Mar 1
38 °FPassing clouds.5 mph91%29.59 "Hg25 mi
10:00 PM40 °FPassing clouds.1 mph89%29.61 "Hg25 mi
9:00 PM43 °FLight rain. Overcast.6 mph86%29.60 "Hg22 mi
8:00 PM43 °FOvercast.6 mph87%29.60 "Hg25 mi
7:00 PM43 °FPassing clouds.7 mph87%29.59 "Hg25 mi
6:00 PM45 °FOvercast.8 mph81%29.58 "Hg22 mi
5:00 PM46 °FPartly sunny.7 mph80%29.57 "Hg19 mi
4:00 PM45 °FOvercast.8 mph81%29.58 "Hg22 mi
3:00 PM44 °FPartly sunny.6 mph87%29.58 "Hg19 mi
2:00 PM41 °FLow clouds.6 mph95%29.60 "Hg9 mi
1:00 PM38 °FLight rain. Low clouds.6 mph97%29.62 "Hg3 mi
12:00 PM38 °FLight rain. Low clouds.7 mph95%29.64 "Hg4 mi
11:00 AM37 °FLight rain. Overcast.8 mph94%29.65 "Hg6 mi
10:00 AM37 °FLight rain. Overcast.8 mph91%29.66 "Hg6 mi
9:00 AM37 °FLight rain. Overcast.8 mph82%29.68 "Hg9 mi
8:00 AM37 °FOvercast.8 mph76%29.71 "Hg16 mi
7:00 AM36 °FOvercast.8 mph77%29.73 "Hg12 mi
6:00 AM35 °FOvercast.8 mph78%29.77 "Hg15 mi
5:00 AM35 °FOvercast.8 mph77%29.80 "Hg16 mi
4:00 AM34 °FOvercast.9 mph80%29.83 "Hg16 mi
3:00 AM33 °FPassing clouds.8 mph80%29.87 "Hg16 mi
2:00 AM33 °FPassing clouds.8 mph81%29.91 "Hg17 mi
1:00 AM33 °FPassing clouds.7 mph81%29.93 "Hg19 mi
Weather by CustomWeather, © 2015

See weather overviewHow to use our weather pages